Location: Agendoh
(31.0664°N, 8.9343°W)
Time: 10:12:10
(UTC+00:00)

Lacrosse 5 - Pass Details

Date: 29 June 2022
Orbit: 714 x 724 km, 57.0° (Epoch: 09 March)

Event Time Altitude Azimuth Distance (km) Brightness Sun altitude
Rises 21:23:28 0° 342° (NNW) 3,138 6.2 -18.3°
Reaches altitude 10° 21:28:34 10° 26° (NNE) 2,212 4.6 -19.1°
Maximum altitude 21:29:10 10° 33° (NNE) 2,198 4.5 -19.2°
Drops below altitude 10° 21:29:47 10° 40° (NE) 2,211 4.4 -19.3°
Enters shadow 21:32:24 - 66° (ENE) 2,535 4.5 -19.7°
